FW2916 Weather Reports


Display with metric or nautical units.
time (UTC)temp
F
wind
direction
speed
MPH
gust
MPH
rain 1hr
in
rain 24hr
in
rain mn
in
humidity
%
barometer
mb
20260504081541 65 75 1.0 5.0 0.00 0.00 0.00 60 1005.1
20260504044540 60 0 0.0 0.0 0.00 0.00 0.00 76 1007.4
20260504043048 61 0 0.0 0.0 0.00 0.00 0.00 73 1007.1
20260504041541 62 0 0.0 0.0 0.00 0.00 0.00 69 1007.1
20260504040042 64 0 0.0 0.0 0.00 0.00 0.00 67 1007.2
20260504034536 65 0 0.0 2.0 0.00 0.00 0.00 64 1007.4
20260504033037 65 0 0.0 2.0 0.00 0.00 0.00 66 1007.6
20260504031540 65 0 0.0 3.0 0.00 0.00 0.00 66 1007.8
20260504030035 66 0 0.0 1.0 0.00 0.00 0.00 65 1008.0
20260504024537 65 142 0.0 1.0 0.00 0.00 0.00 65 1007.9
20260504023037 65 0 0.0 1.0 0.00 0.00 0.00 64 1007.8
20260504021535 65 0 0.0 0.0 0.00 0.00 0.00 61 1007.8
20260504020034 67 0 0.0 0.0 0.00 0.00 0.00 60 1007.9
20260504014539 68 0 0.0 0.0 0.00 0.00 0.00 57 1007.8
20260504013051 70 0 0.0 0.0 0.00 0.00 0.00 54 1007.7
20260504011539 71 0 0.0 0.0 0.00 0.00 0.00 50 1007.8
20260504010039 73 0 0.0 0.0 0.00 0.00 0.00 46 1007.6
20260504004535 75 0 0.0 0.0 0.00 0.00 0.00 42 1007.6
20260504003042 76 0 0.0 1.0 0.00 0.00 0.00 40 1007.7
20260504001541 78 159 0.0 3.0 0.00 0.00 0.00 38 1007.7
20260504000043 79 192 0.0 3.0 0.00 0.00 0.00 36 1007.7
20260503234535 80 0 0.0 5.0 0.00 0.00 0.00 34 1008.0
20260503233039 81 152 2.0 9.0 0.00 0.00 0.00 33 1008.1
20260503231534 83 337 1.0 10.0 0.00 0.00 0.00 34 1008.1
20260503230041 84 158 2.0 9.0 0.00 0.00 0.00 32 1008.1
20260503224541 84 180 2.0 9.0 0.00 0.00 0.00 30 1008.2
20260503223037 84 174 2.0 9.0 0.00 0.00 0.00 33 1008.4
20260503221537 85 219 3.0 10.0 0.00 0.00 0.00 34 1008.3
20260503220035 85 187 2.0 10.0 0.00 0.00 0.00 34 1008.6
20260503214543 84 333 2.0 13.0 0.00 0.00 0.00 35 1008.8
20260503213040 84 262 2.0 8.0 0.00 0.00 0.00 34 1008.9
20260503211539 84 319 2.0 9.0 0.00 0.00 0.00 35 1009.0
20260503210036 83 132 1.0 9.0 0.00 0.00 0.00 42 1009.3
20260503204542 83 105 1.0 10.0 0.00 0.00 0.00 43 1009.5
20260503203049 83 175 3.0 7.0 0.00 0.00 0.00 43 1009.8
20260503201545 82 264 2.0 8.0 0.00 0.00 0.00 43 1009.9
20260503200040 82 116 1.0 7.0 0.00 0.00 0.00 46 1010.2
20260503194535 82 63 1.0 10.0 0.00 0.00 0.00 44 1010.3
20260503193040 81 221 2.0 6.0 0.00 0.00 0.00 44 1010.5
20260503191541 81 134 1.0 7.0 0.00 0.00 0.00 46 1010.9
20260503190044 80 110 2.0 7.0 0.00 0.00 0.00 47 1011.0
20260503184542 79 330 1.0 6.0 0.00 0.00 0.00 46 1011.3
20260503183044 78 293 4.0 9.0 0.00 0.00 0.00 46 1011.6
20260503181542 78 271 2.0 8.0 0.00 0.00 0.00 48 1011.7
20260503180046 77 240 2.0 9.0 0.00 0.00 0.00 49 1012.0
20260503174545 76 258 3.0 11.0 0.00 0.00 0.00 49 1012.3
20260503173044 76 238 2.0 11.0 0.00 0.00 0.00 49 1012.6
20260503171534 76 330 3.0 9.0 0.00 0.00 0.00 49 1012.7